This demonstration page uses our WeatherBlox Daily Observations layout. Learn more.

Hourly Observations for August 13, 2016

Temp ( °F °C ) Dew Point ( °F °C ) Humidity (%) Winds ( mph kmh ) Pressure ( in mb ) Visibility ( mi km ) Precip ( " mm )
12:54 am 00:54 Clear 68 20 60 15.6 76 76 Calm 29.98 1015 10 16.0934 0 0
1:54 am 01:54 Clear 65 18.3 60 15.6 84 84 Calm 29.98 1015 10 16.0934 0 0
2:54 am 02:54 Clear 64 17.8 60 15.6 87 87 Calm 29.97 1015 10 16.0934 0 0
3:54 am 03:54 Clear 65 18.3 60 15.6 84 84 W 3 6 29.97 1015 10 16.0934 0 0
4:54 am 04:54 Clear 64 17.8 60 15.6 87 87 W 3 6 29.97 1015 10 16.0934 0 0
5:54 am 05:54 Clear 64 17.8 60 15.6 87 87 Calm 29.98 1015 10 16.0934 0 0
6:54 am 06:54 Sunny 63 17.2 60 15.6 90 90 W 3 6 29.99 1016 10 16.0934 0 0
7:54 am 07:54 Sunny 67 19.4 60 15.6 79 79 Calm 30.02 1017 10 16.0934 0 0
8:54 am 08:54 Sunny 71 21.7 62 16.7 73 73 Calm 30.02 1017 10 16.0934 0 0
9:54 am 09:54 Sunny 78 25.6 63 17.2 60 60 W 5 7 30.03 1017 10 16.0934 0 0
10:54 am 10:54 Sunny 81 27.2 63 17.2 54 54 W 8 13 30.03 1017 10 16.0934 0 0
11:54 am 11:54 Sunny 84 28.9 65 18.3 53 53 VRB 3 6 30.02 1017 10 16.0934 0 0
12:54 pm 12:54 Sunny 86 30 65 18.3 49 49 N 7 11 30.01 1016 10 16.0934 0 0
1:54 pm 13:54 Sunny 88 31.1 63 17.2 43 43 NNW 10 17 29.99 1016 10 16.0934 0 0
2:54 pm 14:54 Sunny 88 31.1 64 17.8 45 45 WNW 9 15 29.99 1016 10 16.0934 0 0
3:54 pm 15:54 Sunny 87 30.6 62 16.7 43 43 NW 10 17 29.97 1015 10 16.0934 0 0
4:54 pm 16:54 Sunny 87 30.6 63 17.2 45 45 NW 6 9 29.96 1015 10 16.0934 0 0
5:54 pm 17:54 Sunny 86 30 64 17.8 48 48 N 7 11 29.96 1015 10 16.0934 0 0
6:54 pm 18:54 Sunny 84 28.9 62 16.7 48 48 N 7 11 29.96 1015 10 16.0934 0 0
7:54 pm 19:54 Sunny 80 26.7 65 18.3 60 60 NNE 5 7 29.97 1015 10 16.0934 0 0
8:54 pm 20:54 Clear 74 23.3 65 18.3 74 74 NNE 7 11 30 1016 10 16.0934 0 0
9:54 pm 21:54 Clear 73 22.8 64 17.8 74 74 N 5 7 30.02 1017 10 16.0934 0 0
10:54 pm 22:54 Clear 70 21.1 64 17.8 82 82 N 5 7 30.03 1017 10 16.0934 0 0
11:54 pm 23:54 Clear 68 20 64 17.8 87 87 Calm 30.04 1017 10 16.0934 0 0

Powered by AerisWeather